• In Österreich
  • Länderverzeichnis
  • Für 7 Tage
  • Wassertemperatur
  • Satellitenkarten
  • Wetterkarte
  • News
  • Widgets
  • user-avatar
    Anmelden

    Stündliche Wetter Shtip

    Heute, 23 Juni, Samstag

    Zeit Temperatur Niederschläge Wind Luftdruck Luftfeuchtigkeit
    00:00 +17°C° 0,1 mm 3 m/S 727 mmHg 86%
    01:00 +16°C° 0,1 mm 3 m/S 728 mmHg 89%
    02:00 +14°C° 0 mm 3 m/S 728 mmHg 88%
    03:00 +13°C° 0 mm 3 m/S 728 mmHg 88%
    04:00 +12°C° 0 mm 3 m/S 728 mmHg 87%
    05:00 +13°C° 0,1 mm 4 m/S 728 mmHg 81%
    06:00 +14°C° 0,1 mm 4 m/S 729 mmHg 75%
    07:00 +14°C° 0,1 mm 5 m/S 729 mmHg 69%
    08:00 +14°C° 0,5 mm 4 m/S 729 mmHg 69%
    09:00 +14°C° 0,5 mm 4 m/S 729 mmHg 70%
    10:00 +14°C° 0,5 mm 4 m/S 730 mmHg 70%
    11:00 +15°C° 0,2 mm 4 m/S 729 mmHg 68%
    12:00 +15°C° 0,2 mm 4 m/S 729 mmHg 66%
    13:00 +17°C° 0,2 mm 3 m/S 729 mmHg 64%
    14:00 +18°C° 0 mm 3 m/S 729 mmHg 56%
    15:00 +20°C° 0 mm 3 m/S 729 mmHg 49%
    16:00 +21°C° 0 mm 3 m/S 729 mmHg 41%
    17:00 +20°C° 0 mm 3 m/S 729 mmHg 45%
    18:00 +18°C° 0 mm 3 m/S 729 mmHg 48%
    19:00 +17°C° 0 mm 2 m/S 729 mmHg 52%
    20:00 +16°C° 0 mm 2 m/S 729 mmHg 57%
    21:00 +14°C° 0 mm 2 m/S 729 mmHg 62%
    22:00 +13°C° 0 mm 2 m/S 730 mmHg 67%
    23:00 +12°C° 0 mm 2 m/S 730 mmHg 70%

    Morgen, 24 Juni, Sonntag

    Zeit Temperatur Niederschläge Wind Luftdruck Luftfeuchtigkeit
    00:00 +12°C° 0 mm 2 m/S 730 mmHg 74%
    01:00 +10°C° 0 mm 2 m/S 730 mmHg 78%
    02:00 +10°C° 0 mm 2 m/S 730 mmHg 80%
    03:00 +10°C° 0 mm 2 m/S 730 mmHg 82%
    04:00 +9°C° 0 mm 2 m/S 730 mmHg 84%
    05:00 +12°C° 0 mm 2 m/S 730 mmHg 75%
    06:00 +15°C° 0 mm 2 m/S 730 mmHg 66%
    07:00 +17°C° 0 mm 3 m/S 730 mmHg 57%
    08:00 +19°C° 0 mm 3 m/S 730 mmHg 50%
    09:00 +20°C° 0 mm 2 m/S 730 mmHg 44%
    10:00 +23°C° 0 mm 2 m/S 730 mmHg 38%
    11:00 +24°C° 0 mm 2 m/S 730 mmHg 35%
    12:00 +25°C° 0 mm 2 m/S 730 mmHg 32%
    13:00 +26°C° 0 mm 2 m/S 729 mmHg 29%
    14:00 +26°C° 0 mm 2 m/S 729 mmHg 29%
    15:00 +26°C° 0 mm 3 m/S 729 mmHg 30%
    16:00 +26°C° 0 mm 3 m/S 729 mmHg 30%
    17:00 +24°C° 0 mm 3 m/S 729 mmHg 37%
    18:00 +21°C° 0 mm 3 m/S 729 mmHg 43%
    19:00 +19°C° 0 mm 2 m/S 729 mmHg 50%
    20:00 +17°C° 0 mm 2 m/S 729 mmHg 55%
    21:00 +16°C° 0 mm 2 m/S 729 mmHg 60%
    22:00 +14°C° 0 mm 2 m/S 729 mmHg 64%
    23:00 +14°C° 0 mm 2 m/S 729 mmHg 67%

    übermorgen, 25 Juni, Montag

    Zeit Temperatur Niederschläge Wind Luftdruck Luftfeuchtigkeit
    00:00 +13°C° 0 mm 2 m/S 729 mmHg 69%
    01:00 +13°C° 0 mm 2 m/S 729 mmHg 71%
    02:00 +13°C° 0 mm 1 m/S 729 mmHg 73%
    03:00 +12°C° 0 mm 1 m/S 729 mmHg 75%
    04:00 +12°C° 0 mm 1 m/S 729 mmHg 78%
    05:00 +14°C° 0 mm 1 m/S 729 mmHg 70%
    06:00 +16°C° 0 mm 1 m/S 729 mmHg 63%
    07:00 +18°C° 0 mm 2 m/S 729 mmHg 56%
    08:00 +21°C° 0 mm 1 m/S 729 mmHg 51%
    09:00 +23°C° 0 mm 1 m/S 729 mmHg 47%
    10:00 +25°C° 0 mm 1 m/S 729 mmHg 42%
    11:00 +26°C° 0 mm 1 m/S 729 mmHg 41%
    12:00 +26°C° 0 mm 1 m/S 729 mmHg 40%
    13:00 +27°C° 0 mm 1 m/S 729 mmHg 39%
    14:00 +27°C° 0,1 mm 1 m/S 729 mmHg 40%
    15:00 +26°C° 0,1 mm 1 m/S 728 mmHg 42%
    16:00 +26°C° 0,1 mm 2 m/S 728 mmHg 43%
    17:00 +24°C° 0,1 mm 2 m/S 728 mmHg 50%
    18:00 +23°C° 0,1 mm 2 m/S 728 mmHg 56%
    19:00 +20°C° 0,1 mm 2 m/S 728 mmHg 62%
    20:00 +19°C° 0 mm 2 m/S 728 mmHg 67%
    21:00 +18°C° 0 mm 2 m/S 728 mmHg 72%
    22:00 +17°C° 0 mm 2 m/S 729 mmHg 77%
    23:00 +17°C° 0,1 mm 2 m/S 728 mmHg 79%

    26 Juni, Dienstag

    Zeit Temperatur Niederschläge Wind Luftdruck Luftfeuchtigkeit
    00:00 +17°C° 0,1 mm 2 m/S 728 mmHg 80%
    01:00 +16°C° 0,1 mm 2 m/S 728 mmHg 81%
    02:00 +16°C° 0 mm 2 m/S 728 mmHg 83%
    03:00 +15°C° 0 mm 2 m/S 728 mmHg 85%
    04:00 +15°C° 0 mm 2 m/S 727 mmHg 86%
    05:00 +16°C° 0,1 mm 2 m/S 727 mmHg 81%
    06:00 +17°C° 0,1 mm 2 m/S 728 mmHg 76%
    07:00 +19°C° 0,1 mm 3 m/S 728 mmHg 71%
    08:00 +20°C° 0 mm 3 m/S 728 mmHg 64%
    09:00 +22°C° 0 mm 4 m/S 728 mmHg 56%
    10:00 +25°C° 0 mm 4 m/S 728 mmHg 49%
    11:00 +26°C° 0 mm 4 m/S 727 mmHg 46%
    12:00 +27°C° 0 mm 4 m/S 727 mmHg 42%
    13:00 +28°C° 0 mm 5 m/S 727 mmHg 39%
    14:00 +28°C° 0 mm 5 m/S 727 mmHg 40%
    15:00 +28°C° 0 mm 5 m/S 726 mmHg 41%
    16:00 +27°C° 0 mm 5 m/S 726 mmHg 43%
    17:00 +26°C° 0,2 mm 4 m/S 726 mmHg 50%
    18:00 +23°C° 0,2 mm 4 m/S 726 mmHg 57%
    19:00 +21°C° 0,2 mm 3 m/S 727 mmHg 64%
    20:00 +20°C° 0,2 mm 3 m/S 727 mmHg 69%
    21:00 +19°C° 0,2 mm 2 m/S 727 mmHg 75%
    22:00 +18°C° 0,2 mm 2 m/S 727 mmHg 80%
    23:00 +17°C° 0,1 mm 2 m/S 727 mmHg 81%

    27 Juni, Mittwoch

    Zeit Temperatur Niederschläge Wind Luftdruck Luftfeuchtigkeit
    00:00 +17°C° 0,1 mm 2 m/S 727 mmHg 81%
    01:00 +17°C° 0,1 mm 2 m/S 727 mmHg 82%
    02:00 +17°C° 0,1 mm 2 m/S 727 mmHg 82%
    03:00 +17°C° 0,1 mm 2 m/S 727 mmHg 83%
    04:00 +17°C° 0,1 mm 2 m/S 727 mmHg 83%
    05:00 +18°C° 0 mm 2 m/S 728 mmHg 78%
    06:00 +19°C° 0 mm 2 m/S 728 mmHg 72%
    07:00 +20°C° 0 mm 3 m/S 728 mmHg 67%
    08:00 +21°C° 0 mm 3 m/S 728 mmHg 60%
    09:00 +24°C° 0 mm 3 m/S 729 mmHg 54%
    10:00 +25°C° 0 mm 2 m/S 729 mmHg 47%
    11:00 +26°C° 0 mm 2 m/S 729 mmHg 46%
    12:00 +26°C° 0 mm 2 m/S 729 mmHg 46%
    13:00 +27°C° 0 mm 2 m/S 729 mmHg 45%
    14:00 +26°C° 0,1 mm 2 m/S 729 mmHg 47%
    15:00 +26°C° 0,1 mm 1 m/S 729 mmHg 49%
    16:00 +26°C° 0,1 mm 1 m/S 729 mmHg 51%
    17:00 +24°C° 0,1 mm 1 m/S 729 mmHg 55%
    18:00 +23°C° 0,1 mm 1 m/S 729 mmHg 60%
    19:00 +22°C° 0,1 mm 1 m/S 729 mmHg 64%
    20:00 +21°C° 0,1 mm 1 m/S 729 mmHg 68%
    21:00 +20°C° 0,1 mm 1 m/S 729 mmHg 73%
    22:00 +19°C° 0,1 mm 1 m/S 730 mmHg 77%
    23:00 +19°C° 0,1 mm 1 m/S 729 mmHg 80%

    28 Juni, Donnerstag

    Zeit Temperatur Niederschläge Wind Luftdruck Luftfeuchtigkeit
    00:00 +18°C° 0,1 mm 1 m/S 729 mmHg 82%
    01:00 +18°C° 0,1 mm 1 m/S 729 mmHg 85%
    02:00 +16°C° 0 mm 1 m/S 729 mmHg 85%
    03:00 +16°C° 0 mm 2 m/S 729 mmHg 86%
    04:00 +16°C° 0 mm 2 m/S 729 mmHg 86%
    05:00 +18°C° 0 mm 2 m/S 729 mmHg 78%
    06:00 +20°C° 0 mm 2 m/S 729 mmHg 70%
    07:00 +23°C° 0 mm 2 m/S 730 mmHg 61%
    08:00 +24°C° 0 mm 2 m/S 730 mmHg 55%
    09:00 +26°C° 0 mm 2 m/S 730 mmHg 49%
    10:00 +27°C° 0 mm 2 m/S 730 mmHg 43%
    11:00 +27°C° 0,2 mm 2 m/S 730 mmHg 46%
    12:00 +26°C° 0,2 mm 2 m/S 729 mmHg 49%
    13:00 +26°C° 0,2 mm 2 m/S 729 mmHg 52%
    14:00 +25°C° 0,2 mm 2 m/S 729 mmHg 54%
    15:00 +25°C° 0,2 mm 2 m/S 729 mmHg 56%
    16:00 +25°C° 0,2 mm 2 m/S 729 mmHg 58%
    17:00 +24°C° 0,1 mm 2 m/S 729 mmHg 63%
    18:00 +21°C° 0,1 mm 2 m/S 729 mmHg 67%
    19:00 +21°C° 0,1 mm 1 m/S 729 mmHg 72%
    20:00 +20°C° 0 mm 1 m/S 729 mmHg 75%
    21:00 +18°C° 0 mm 2 m/S 729 mmHg 79%
    22:00 +17°C° 0 mm 2 m/S 729 mmHg 83%
    23:00 +18°C° 0 mm 1 m/S 729 mmHg 84%
    Mehr zeigen